Location: Hilderbrand
(37.5756°N, 89.8540°W)
Time: 11:17:52
(UTC+00:00)

Cosmos 1975 Rocket - Pass Details

Date: 15 November 2025
Orbit: 597 x 626 km, 82.5° (Epoch: 05 December)

Event Time Altitude Azimuth Distance (km) Brightness Sun altitude
Rises 23:27:06 0° 357° (N) 2,866 6.3 -8.1°
Reaches altitude 10° 23:29:21 10° 2° (N) 1,962 5.4 -8.5°
Maximum altitude 23:33:38 57° 81° (E) 723 3.1 -9.3°
Drops below altitude 10° 23:37:55 10° 160° (SSE) 1,966 5.6 -10.1°
Sets 23:40:10 0° 165° (SSE) 2,871 6.5 -10.5°
